[[{"header":{"parameterUnit":"m.s-1","parameterCategory":1,"la1":30.2991,"la2":30.254,"lo1":-89.0895,"lo2":-89.0444,"dy":0.0017,"dx":0.0017,"nx":28,"ny":28,"refTime":"2024-06-17T09:00:00:Z","depth":0,"parameterNumber":2,"parameterNumberName":"U-component_of_WINDS"},"data":[0,0,0,0,0,0,0,0,0,0,0,0,0,0,0,0,0,0,0,0,0,0,0,0,0,0,0,0,0,0,0,0,0,0,0,0,0,0,0,0,0,0,0,0,0,0,0,0,0,0,0,0,0,0,0,0,0,0,-9.6015,-9.6015,0,-9.5976,-9.5976,-9.5975,-9.5687,-9.568,-9.5673,-9.5666,-9.5627,-9.5633,-9.5638,0,0,0,0,0,0,0,0,0,0,0,0,0,-9.5842,-9.5847,-9.6015,-9.6015,-9.6014,-9.5976,-9.5976,-9.5975,-9.5688,-9.568,-9.5671,-9.5663,-9.5625,-9.5632,-9.5639,0,0,0,0,0,0,0,0,0,0,0,0,0,-9.5872,-9.5848,-9.6015,-9.5866,-9.5853,-9.5976,-9.5976,-9.5975,-9.569,-9.5679,-9.5669,-9.5659,-9.5623,-9.5631,-9.5639,-9.5903,0,0,-9.5665,-9.5669,0,0,0,0,0,0,0,0,-9.587,-9.5878,-9.5889,-9.5877,-9.5862,-9.5826,-9.59,-9.5951,-9.5693,-9.5752,-9.5666,-9.5654,-9.5702,-9.5703,-9.5719,-9.5901,-9.59,-9.5666,-9.5671,-9.5674,-9.5677,0,0,0,0,0,0,0,-9.5869,-9.5878,-9.6,-9.5889,-9.5873,-9.5802,-9.5794,-9.5908,-9.5787,-9.5746,-9.5725,-9.5724,-9.5692,-9.5712,-9.5716,-9.5899,-9.5665,-9.5673,-9.5678,-9.5681,-9.6294,-9.6304,0,0,0,0,0,0,-9.5887,-9.5879,-9.6001,-9.5998,-9.584,-9.5814,-9.5805,-9.5848,-9.5785,-9.5765,-9.5733,-9.5711,-9.5703,-9.5707,-9.5714,-9.6014,-9.5674,-9.5682,-9.5687,-9.6283,-9.6296,-9.6308,0,0,0,0,0,0,-9.5885,-9.5901,-9.6002,-9.5933,-9.594,-9.5828,-9.5878,-9.5853,-9.5871,-9.5775,-9.5752,-9.5775,-9.5694,-9.5702,-9.5857,-9.6009,-9.5686,-9.5693,-9.6269,-9.6287,-9.6302,-9.6621,0,0,0,0,0,0,-9.5881,-9.5902,-9.6,-9.5937,-9.5945,-9.6148,-9.5888,-9.586,-9.5886,-9.5857,-9.5808,-9.579,-9.5687,-9.5847,-9.5866,-9.6015,-9.57,-9.6255,-9.6277,-9.6297,-9.6597,-9.6647,-9.669,0,0,0,0,0,-9.5876,-9.6092,-9.6007,-9.6023,-9.6066,-9.6157,-9.6161,-9.6037,-9.59,-9.5998,-9.5936,-9.5792,-9.5992,-9.5865,-9.5884,-9.6038,-9.6245,-9.6271,-9.6295,-9.6576,-9.6637,-9.6689,0,0,0,0,0,0,-9.6176,-9.6081,-9.5985,-9.6188,-9.6183,-9.6108,-9.6227,-9.6107,-9.6141,-9.6111,-9.5957,-9.5949,-9.6127,-9.6099,-9.596,-9.6289,-9.6093,-9.6124,-9.63,-9.6357,-9.6403,-9.6403,-9.5707,0,0,0,0,0,-9.6266,-9.6348,-9.6261,-9.6448,-9.645,-9.6341,-9.6376,-9.6281,-9.6269,-9.6265,-9.6215,-9.621,-9.627,-9.6313,-9.6364,-9.6594,-9.6577,-9.6709,-9.6756,-9.6795,-9.6821,-9.6938,-9.6994,-9.6392,-9.6391,-9.6391,0,0,-9.6452,-9.641,-9.6471,-9.6507,-9.6491,-9.6579,-9.634,-9.6443,-9.6505,-9.6281,-9.6422,-9.6388,-9.6371,-9.6564,-9.6647,-9.6546,-9.6985,-9.6827,-9.6859,-9.6864,-9.6969,-9.7027,-9.7077,-9.6409,-9.6406,-9.6403,0,0,-9.6833,-9.6813,-9.6964,-9.6954,-9.6934,-9.686,-9.6898,-9.6842,-9.6809,-9.695,-9.6783,-9.6857,-9.6966,-9.696,-9.6971,-9.7356,-9.7222,-9.7377,-9.7619,-9.7734,-9.7782,-9.7823,-9.7955,-9.8005,-9.7405,-9.7406,-9.7406,0,-9.7066,-9.719,-9.7057,-9.717,-9.719,-9.6993,-9.7145,-9.7142,-9.7141,-9.7159,-9.7048,-9.7179,-9.7155,-9.7342,-9.7436,-9.7454,-9.749,-9.7378,-9.7786,-9.7826,-9.7862,-9.7987,-9.8038,-9.7424,-9.7422,-9.742,-9.7419,0,-9.7475,-9.7565,-9.769,-9.7692,-9.7728,-9.7861,-9.7748,-9.78,-9.7705,-9.7643,-9.7789,-9.7754,-9.7792,-9.7832,-9.774,-9.8007,-9.7944,-9.7813,-9.7611,-9.794,-9.8054,-9.8101,-9.7451,-9.7444,-9.7439,-9.7434,0,0,-9.8038,-9.7968,-9.8016,-9.8014,-9.7979,-9.8045,-9.8171,-9.8209,-9.8254,-9.8263,-9.8361,-9.846,-9.8337,-9.835,-9.8257,-9.836,-9.8661,-9.8213,-9.8211,-9.8293,-9.8949,-9.9044,-9.9102,-9.8576,-9.8585,-9.8592,-9.8949,0,-9.84,-9.8606,-9.8492,-9.8714,-9.8793,-9.8609,-9.8717,-9.8708,-9.8656,-9.8716,-9.8658,-9.8728,-9.8563,-9.857,-9.8664,-9.8605,-9.879,-9.8578,-9.8663,-9.8668,-9.8666,-9.9162,-9.9262,-9.96,-9.8993,-9.9001,-9.9006,0,-9.8848,-9.8874,-9.9104,-9.9053,-9.9082,-9.9181,-9.9206,-9.9268,-9.9255,-9.9209,-9.9227,-9.9109,-9.9227,-9.9035,-9.9194,-9.9053,-9.9083,-9.906,-9.907,-9.9067,-9.8852,-9.9167,-9.9706,-9.9755,-9.9076,-9.907,-9.9065,0,-9.9228,-9.9322,-9.947,-9.9475,-9.9422,-9.9495,-9.9477,-9.9453,-9.9484,-9.9508,-9.9525,-9.9565,-9.9584,-9.9617,-9.9513,-9.9383,-9.9687,-9.9485,-9.9649,-9.9652,-9.9715,-9.9711,-10.026,-9.9747,-9.9746,-9.9745,-9.9744,0,-9.964,-9.9787,-9.964,-9.9731,-9.989,-9.9759,-9.992,-9.9882,-9.9864,-9.9943,-9.979,-9.9869,-9.9729,-9.9795,-9.9715,-9.9858,-9.987,-9.9835,-9.981,-9.9844,-9.9848,-9.9856,-9.9828,-9.9758,-9.9755,-9.9753,-9.975,0,-10.0088,-9.9997,-10.0145,-10.0084,-10.0072,-10.0192,-10.0138,-10.022,-10.0159,-10.0263,-10.028,-10.0184,-10.0252,-10.0154,-10.0213,-10.0159,-10.0354,-10.0298,-10.0358,-10.0339,-10.0506,-10.049,-10.1074,-10.1142,-10.0592,-10.0597,-10.0602,0,-10.0353,-10.0461,-10.0412,-10.0454,-10.0445,-10.0516,-10.0546,-10.0424,-10.0462,-10.0456,-10.0538,-10.0595,-10.0631,-10.0751,-10.0686,-10.0731,-10.067,-10.0872,-10.0675,-10.0706,-10.0666,-10.0658,-10.0667,-10.091,-10.0917,-10.0922,-10.0926,0,-10.0832,-10.0782,-10.0831,-10.0866,-10.0906,-10.0928,-10.0938,-10.0982,-10.0853,-10.0905,-10.0972,-10.1002,-10.1063,-10.1119,-10.1148,-10.1128,-10.1006,-10.0991,-10.1029,-10.1061,-10.109,-10.1071,-10.0461,-10.0975,-10.097,-10.0967,-10.0964,-10.0962,-10.1192,-10.1278,-10.1257,-10.1317,-10.1312,-10.1326,-10.1399,-10.1348,-10.1402,-10.144,-10.1367,-10.1454,-10.1439,-10.1464,-10.1459,-10.1525,-10.1437,-10.1495,-10.1508,-10.1523,-10.1546,-10.1086,-10.1531,-10.1529,-10.1528,-10.1527,-10.1526,0,-10.1657,-10.1635,-10.1692,-10.1711,-10.1759,-10.1643,-10.1649,-10.1696,-10.1774,-10.1771,-10.1811,-10.189,-10.1945,-10.1888,-10.1932,-10.1996,-10.1941,-10.2011,-10.2001,-10.1998,-10.1625,-10.1584,-10.2054,-10.2054,-10.2054,-10.2054,-10.2054,-10.2054,-10.1904,-10.2043,-10.1991,-10.2127,-10.2104,-10.2187,-10.22,-10.2212,-10.2208,-10.2303,-10.2348,-10.231,-10.2285,-10.2326,-10.2372,-10.2354,-10.2375,-10.2464,-10.2426,-10.2077,-10.2025,-10.1975,-10.1935,-10.2471,-10.2472,-10.2791,-10.2795,-10.2797]},{"header":{"parameterUnit":"m.s-1","parameterCategory":1,"la1":30.2991,"la2":30.254,"lo1":-89.0895,"lo2":-89.0444,"dy":0.0017,"dx":0.0017,"nx":28,"ny":28,"refTime":"2024-06-17T09:00:00:Z","depth":0,"parameterNumber":3,"parameterNumberName":"V-component_of_WINDS"},"data":[0,0,0,0,0,0,0,0,0,0,0,0,0,0,0,0,0,0,0,0,0,0,0,0,0,0,0,0,0,0,0,0,0,0,0,0,0,0,0,0,0,0,0,0,0,0,0,0,0,0,0,0,0,0,0,0,0,0,2.07,2.0698,0,2.0578,2.0577,2.0575,2.0423,2.042,2.0418,2.0416,2.0289,2.0288,2.0287,0,0,0,0,0,0,0,0,0,0,0,0,0,2.08,2.0799,2.07,2.0698,2.0697,2.0578,2.0577,2.0575,2.0423,2.042,2.0417,2.0415,2.0289,2.0288,2.0287,0,0,0,0,0,0,0,0,0,0,0,0,0,2.0725,2.0799,2.07,2.0607,2.0597,2.0579,2.0577,2.0575,2.0424,2.042,2.0417,2.0413,2.029,2.0288,2.0286,2.0349,0,0,2.0281,2.0281,0,0,0,0,0,0,0,0,2.073,2.0722,2.0622,2.0613,2.0602,2.0512,2.0565,2.0499,2.0425,2.049,2.0416,2.0411,2.0366,2.0358,2.0343,2.0343,2.0338,2.0281,2.028,2.0279,2.0279,0,0,0,0,0,0,0,2.0735,2.0726,2.0651,2.0621,2.0609,2.0571,2.0556,2.0552,2.045,2.0484,2.0472,2.046,2.036,2.0345,2.0339,2.0336,2.0281,2.028,2.0279,2.0278,2.0383,2.0386,0,0,0,0,0,0,2.0755,2.0732,2.0655,2.0648,2.0659,2.0572,2.0556,2.0545,2.0449,2.0431,2.0463,2.0453,2.0349,2.0341,2.0334,2.0401,2.0279,2.0278,2.0277,2.0379,2.0384,2.0388,0,0,0,0,0,0,2.0757,2.0749,2.066,2.0687,2.0672,2.0574,2.0563,2.0544,2.0529,2.0434,2.0415,2.0467,2.0346,2.0336,2.0347,2.0394,2.0277,2.0276,2.0375,2.0381,2.0386,2.0536,0,0,0,0,0,0,2.0761,2.0751,2.0774,2.0688,2.0672,2.0676,2.0566,2.0544,2.0527,2.0513,2.0432,2.0415,2.0343,2.035,2.0345,2.039,2.0274,2.037,2.0377,2.0384,2.0527,2.0547,2.0564,0,0,0,0,0,2.0765,2.082,2.0776,2.0767,2.0698,2.0679,2.0669,2.0585,2.0531,2.0553,2.0493,2.0418,2.0391,2.0353,2.0346,2.0391,2.0366,2.0375,2.0383,2.0518,2.0543,2.0563,0,0,0,0,0,0,2.0912,2.0807,2.0756,2.0786,2.0743,2.0653,2.0678,2.0613,2.0584,2.0572,2.0468,2.0451,2.0475,2.0434,2.0393,2.0447,2.0368,2.0375,2.0473,2.0495,2.0513,2.0521,2.0273,0,0,0,0,0,2.0948,2.0942,2.085,2.0885,2.0866,2.0777,2.0765,2.0705,2.0655,2.0636,2.0576,2.0531,2.0512,2.0501,2.0479,2.0521,2.0501,2.0549,2.0568,2.0583,2.059,2.0611,2.0631,2.0416,2.0416,2.0416,0,0,2.1021,2.0964,2.0966,2.0913,2.0872,2.0868,2.0762,2.0761,2.0757,2.0635,2.0642,2.0597,2.054,2.0568,2.0576,2.0534,2.0646,2.0594,2.0607,2.0605,2.0621,2.0642,2.066,2.0422,2.0421,2.042,0,0,2.1153,2.111,2.1134,2.1096,2.1037,2.0978,2.0984,2.0905,2.0871,2.0877,2.0786,2.078,2.0749,2.0713,2.069,2.0813,2.0743,2.0809,2.0904,2.0925,2.0942,2.0956,2.1,2.1017,2.0817,2.0817,2.0817,0,2.1252,2.1242,2.1154,2.116,2.114,2.1032,2.1056,2.1024,2.0961,2.0949,2.0903,2.0865,2.0818,2.0836,2.0867,2.0852,2.0856,2.0816,2.0947,2.0961,2.0973,2.1013,2.103,2.0825,2.0824,2.0823,2.0823,0,2.1367,2.1362,2.1389,2.1332,2.1315,2.133,2.1245,2.1238,2.1181,2.1127,2.1135,2.1077,2.1041,2.1041,2.0984,2.1052,2.1027,2.0966,2.0883,2.1003,2.1039,2.1054,2.0837,2.0834,2.0832,2.083,0,0,2.1583,2.1481,2.1492,2.1465,2.1394,2.1388,2.14,2.1367,2.1363,2.1324,2.1331,2.131,2.1254,2.1229,2.1167,2.1186,2.1287,2.1122,2.1119,2.1154,2.1359,2.1404,2.1424,2.1242,2.1245,2.1247,2.1363,0,2.1701,2.1714,2.1637,2.1671,2.1666,2.1565,2.1575,2.1533,2.1484,2.1473,2.1418,2.1404,2.1331,2.1316,2.133,2.1272,2.1327,2.1263,2.1246,2.1247,2.1262,2.1442,2.149,2.1603,2.1377,2.1379,2.1381,0,2.1839,2.1809,2.1843,2.1773,2.1767,2.1778,2.1742,2.1733,2.1683,2.1646,2.1621,2.1551,2.1557,2.1482,2.1489,2.1447,2.1437,2.1408,2.141,2.1403,2.132,2.144,2.1636,2.1653,2.1402,2.1401,2.1399,0,2.1993,2.1962,2.1978,2.1959,2.1877,2.1887,2.1853,2.18,2.1786,2.1756,2.1745,2.1716,2.1699,2.1678,2.1603,2.1554,2.162,2.1537,2.1589,2.1591,2.1604,2.1604,2.1801,2.1601,2.1601,2.1601,2.16,0,2.2131,2.2156,2.2047,2.2057,2.2082,2.1994,2.2022,2.1978,2.1933,2.1933,2.1845,2.1846,2.1747,2.1738,2.1679,2.1695,2.1688,2.1659,2.1642,2.1665,2.1669,2.1655,2.1645,2.1605,2.1604,2.1603,2.1602,0,2.2306,2.2234,2.2246,2.2169,2.215,2.2172,2.2106,2.2112,2.2059,2.2061,2.2056,2.1972,2.1958,2.1881,2.1848,2.1809,2.1845,2.1813,2.1862,2.185,2.1906,2.1902,2.2099,2.2121,2.191,2.1912,2.1914,0,2.2398,2.2414,2.234,2.2335,2.2306,2.2297,2.2283,2.2199,2.2188,2.2135,2.2148,2.2127,2.2105,2.2086,2.2022,2.1997,2.1964,2.2035,2.1959,2.1983,2.1964,2.1963,2.1964,2.205,2.2053,2.2055,2.2057,0,2.2568,2.2533,2.2516,2.2488,2.2474,2.2448,2.2416,2.2417,2.2323,2.2315,2.23,2.2284,2.2251,2.2231,2.2196,2.2161,2.2094,2.2083,2.2093,2.2115,2.2143,2.2128,2.1904,2.2077,2.2075,2.2074,2.2073,2.2072,2.2703,2.2714,2.2664,2.2649,2.2617,2.2591,2.2593,2.2542,2.2528,2.2496,2.2448,2.244,2.2392,2.2338,2.2309,2.2302,2.2263,2.2278,2.2282,2.2286,2.2299,2.2146,2.2295,2.2294,2.2294,2.2293,2.2293,0,2.2868,2.2832,2.282,2.2779,2.2768,2.2709,2.2671,2.2666,2.266,2.2622,2.2603,2.2587,2.2568,2.2505,2.248,2.2486,2.2455,2.2482,2.248,2.2473,2.2335,2.2328,2.2508,2.2508,2.2508,2.2508,2.2508,2.2508,2.2953,2.2968,2.2928,2.2928,2.2891,2.2883,2.2867,2.2843,2.2812,2.2798,2.2783,2.2742,2.2694,2.2666,2.2646,2.2628,2.2622,2.266,2.2632,2.2503,2.2482,2.2463,2.2456,2.266,2.266,2.277,2.2771,2.2772]}]]